Location: Bussy-Saint-Georges
(48.8410°N, 2.7017°E)
Time: 22:51:00
(UTC+00:00)

SL-19 R/B - Pass Details

Date: 18 October 2021
Orbit: 874 x 1209 km, 100.6° (Epoch: 07 December)

Event Time Altitude Azimuth Distance (km) Brightness Sun altitude
Rises 17:48:10 0° 17° (NNE) 3,641 7.3 -9.7°
Reaches altitude 10° 17:50:40 10° 18° (NNE) 2,651 6.6 -10.1°
Maximum altitude 17:56:32 85° 108° (ESE) 905 4.3 -11.1°
Drops below altitude 10° 18:02:06 10° 197° (SSW) 2,524 6.9 -12.0°
Sets 18:04:26 0° 198° (SSW) 3,453 7.6 -12.4°
